Wind_Speed
19 18 15 13 15 20 26 30 31 30 31 30 27 25 26 29 30 32 32 33 33 32 32 33 33 33 32 31 29 27 26 26 25 24 23 22 20 19 19 18 17 15 13 12 13 16 18 18 19 19 18 18 18 17 17 18 18 17 15 14 14 12 11
21 18 16 14 15 16 20 26 30 31 31 32 30 27 26 27 29 30 31 31 32 31 32 33 33 33 32 31 30 29 27 26 25 25 24 23 21 20 20 20 19 17 15 13 13 16 19 21 21 21 21 21 20 20 20 20 20 18 17 16 15 14 14
22 19 17 16 16 16 17 21 27 31 32 32 32 31 29 28 28 28 28 29 30 30 31 32 33 33 32 32 31 30 29 28 26 25 24 23 21 21 21 21 20 19 18 16 14 16 20 22 22 23 23 23 22 22 22 22 21 20 19 18 17 17 16
22 18 16 16 17 17 17 17 21 28 32 33 32 31 31 30 29 28 27 27 28 28 29 29 30 31 31 32 32 31 31 29 28 26 25 24 23 23 23 23 22 21 19 18 17 16 19 22 23 24 24 24 24 24 24 24 23 21 20 20 20 19 17
22 18 17 17 17 16 15 13 15 20 27 32 33 32 31 31 31 30 29 28 27 26 27 28 29 30 30 31 31 31 31 30 29 28 27 26 25 25 25 24 23 22 21 20 19 18 19 21 24 24 25 25 25 25 26 26 25 23 22 22 21 20 17
24 19 18 17 16 15 14 12 13 15 20 26 30 32 31 32 33 33 31 30 29 28 28 29 30 30 30 31 31 31 31 31 31 31 30 29 28 28 27 26 25 24 23 22 22 20 19 21 23 25 26 26 26 27 27 27 26 25 23 23 22 20 18
27 21 18 19 18 16 15 15 14 14 16 19 25 30 32 34 35 34 33 32 30 30 30 29 29 29 29 30 31 32 32 33 33 32 32 31 31 30 29 28 28 27 25 24 23 23 21 21 23 25 27 27 28 28 28 28 28 27 25 24 23 21 19
26 24 20 20 20 17 18 17 13 11 13 16 20 25 30 35 35 35 35 33 31 32 32 31 31 29 27 27 27 28 30 33 34 34 34 33 33 33 32 31 31 29 28 26 25 25 24 23 23 26 28 30 30 30 30 29 29 28 27 26 24 22 20
21 24 23 23 23 22 23 20 14 10 11 15 17 20 24 30 34 35 35 34 33 34 33 32 32 30 28 27 25 24 25 28 31 34 35 35 34 34 34 33 33 32 31 29 28 27 26 25 25 26 29 31 32 32 31 31 31 30 29 27 25 23 22
19 22 25 25 25 25 26 23 17 13 11 14 17 20 21 24 29 32 34 35 35 34 33 32 32 31 30 29 27 25 24 24 26 29 32 34 34 34 34 34 34 33 33 32 30 29 29 27 27 28 30 33 34 34 33 33 32 32 31 29 27 25 23
21 21 22 23 24 26 26 23 18 13 10 13 18 22 24 23 26 29 32 33 33 33 33 33 33 31 30 29 29 28 26 24 24 25 27 29 31 32 33 33 34 34 35 34 32 31 31 31 30 29 31 34 36 36 35 34 34 33 32 30 29 26 24
20 21 22 22 23 23 23 22 18 13 10 12 17 23 25 26 27 29 30 30 30 31 32 33 33 32 31 30 30 29 27 26 26 26 25 26 27 28 29 31 32 33 33 33 31 32 33 33 32 32 32 34 37 37 37 36 35 35 34 32 30 28 26
14 18 22 24 25 24 23 23 22 18 12 12 17 21 23 25 27 29 30 31 30 31 32 32 32 32 32 31 31 30 29 28 28 27 26 26 26 26 26 27 28 29 29 30 31 32 34 34 34 33 33 34 37 38 38 38 37 36 35 34 33 31 29
10 12 16 20 22 22 23 24 25 21 16 13 16 21 23 24 27 29 30 31 31 31 31 31 32 33 33 32 32 32 31 29 29 28 28 28 28 27 27 26 26 27 27 28 30 32 33 35 35 35 34 35 37 39 40 40 39 38 37 36 34 33 31
12 11 12 14 16 17 19 22 24 23 20 15 15 21 24 24 26 29 31 31 31 31 30 31 32 32 33 34 34 34 32 31 30 29 29 30 30 30 29 27 26 26 26 27 28 30 33 35 36 37 36 36 37 40 41 41 41 40 38 37 35 34 33
16 12 9 8 9 11 14 18 22 24 23 19 14 17 23 26 27 29 31 32 32 32 32 32 32 33 34 35 36 34 33 32 32 31 31 32 32 32 32 29 28 27 27 27 27 29 32 35 37 39 38 37 38 40 42 43 42 41 40 38 36 35 35
21 17 13 10 9 10 11 14 20 24 25 22 16 15 20 26 29 29 30 32 33 33 33 32 33 33 35 36 36 35 33 33 33 33 33 34 33 33 34 32 30 28 28 28 27 28 31 35 38 40 40 39 38 39 42 43 42 41 41 40 38 36 36
27 24 21 19 16 15 13 13 17 22 25 24 20 17 19 24 29 31 31 31 32 33 32 32 32 33 34 36 36 35 35 35 34 34 35 35 35 35 35 34 32 30 30 30 29 28 30 34 39 40 40 40 39 40 41 42 41 42 42 41 40 38 38
30 28 26 24 21 19 17 15 15 20 24 25 23 21 20 23 28 31 33 32 31 32 32 31 31 32 33 34 35 35 36 35 34 34 35 35 35 35 34 34 34 32 32 31 31 29 30 34 38 40 41 41 41 41 41 42 41 42 43 42 41 40 40
30 29 27 25 23 20 20 18 16 19 22 24 24 23 22 23 26 29 33 34 33 32 31 30 29 29 30 31 33 34 34 34 33 34 34 34 34 34 34 34 34 34 34 33 32 32 32 34 37 39 40 42 43 42 42 42 42 42 43 43 42 42 42
29 28 26 24 23 22 22 21 18 19 21 23 25 25 24 24 26 27 30 33 33 33 31 29 28 28 29 30 31 32 33 33 32 32 32 33 34 34 34 34 34 35 35 35 34 34 35 35 36 38 40 42 43 43 44 44 44 43 43 44 43 43 43
27 26 25 24 23 22 24 23 19 18 20 23 25 26 25 24 27 29 29 29 31 31 30 30 29 29 29 29 30 31 32 32 33 33 33 33 33 34 34 35 35 35 36 36 36 36 37 37 37 38 40 43 44 45 46 46 45 44 44 45 44 44 45
25 24 23 22 22 23 26 25 20 17 18 20 22 24 25 25 28 31 31 29 29 28 29 29 29 30 30 29 29 30 32 33 33 33 33 32 33 34 35 35 35 36 36 37 38 38 38 39 39 39 41 43 45 46 47 47 46 46 46 46 46 45 46
23 23 22 20 19 22 27 27 22 18 17 18 20 22 25 26 28 31 32 31 29 29 30 31 30 30 31 31 31 31 32 33 33 32 33 33 33 34 35 35 36 36 36 37 38 40 39 39 41 42 42 43 45 47 47 48 48 47 47 47 47 47 47
21 21 22 20 18 19 25 28 25 22 20 19 18 20 23 26 28 30 32 32 30 30 31 32 31 31 33 34 35 34 33 32 32 33 34 34 32 33 34 34 35 35 36 37 39 40 41 41 42 43 44 44 45 47 49 49 49 48 48 48 48 48 48
21 21 21 21 19 18 21 26 27 26 23 22 20 19 20 23 26 28 30 31 31 31 29 29 31 33 34 36 36 36 34 33 32 32 32 30 29 30 31 32 33 34 35 37 38 39 41 42 42 43 45 46 46 47 49 50 51 50 50 50 49 49 50
22 21 21 21 20 19 19 21 23 24 25 24 23 21 21 21 23 25 27 29 31 30 29 28 30 33 35 36 37 36 34 33 31 30 28 27 26 27 28 29 31 33 35 36 37 39 41 42 42 42 45 47 49 49 49 50 51 51 51 51 51 51 51
23 22 21 21 22 21 20 19 20 22 24 25 24 23 23 23 22 23 25 27 28 29 30 30 30 32 34 35 35 34 33 33 31 28 27 27 27 28 28 30 31 33 34 35 37 39 40 41 41 41 44 47 51 52 51 50 50 51 52 53 53 53 54
24 23 23 22 23 23 22 21 20 21 24 26 26 26 26 26 25 24 23 24 25 26 28 28 28 29 31 33 34 33 32 33 32 30 29 29 29 29 30 31 31 32 33 36 38 40 41 41 40 41 43 46 50 53 54 54 53 51 52 53 53 54 55
26 26 25 24 25 24 23 23 22 22 24 27 29 30 30 29 28 27 25 25 25 24 25 26 27 28 29 31 33 33 32 33 33 32 32 31 31 31 31 31 32 33 34 35 37 39 41 41 41 42 42 44 46 50 54 56 56 55 55 54 54 55 56
28 28 27 27 27 26 25 25 24 23 24 27 30 32 33 33 31 29 28 28 27 27 26 26 27 28 29 31 32 34 35 35 36 35 34 33 32 32 31 31 32 35 35 35 36 38 39 40 41 42 44 45 46 48 51 54 56 57 57 56 56 55 55
30 30 29 29 28 28 27 26 25 24 24 26 29 32 34 35 33 32 30 30 29 29 28 28 28 30 31 31 32 34 36 38 38 36 35 35 35 34 34 34 34 36 37 38 38 38 39 40 40 40 41 43 45 46 49 52 53 55 56 56 55 53 52
31 31 30 29 29 29 28 28 27 26 25 25 27 30 34 35 34 33 32 32 31 31 30 30 30 30 31 32 32 34 36 36 36 36 36 37 38 38 39 39 38 38 40 42 42 42 43 43 42 41 41 42 43 45 47 49 50 52 53 54 53 53 54
32 31 31 30 29 28 28 28 28 28 28 27 28 30 34 35 35 33 33 33 33 33 32 32 31 31 32 32 32 33 34 35 36 37 38 39 39 40 41 41 41 42 43 44 46 47 48 48 48 47 46 46 46 46 46 47 49 50 50 50 51 53 54
31 31 31 30 29 28 27 27 28 29 29 29 29 30 32 33 33 32 32 32 32 31 31 30 30 31 32 32 33 34 35 37 39 40 41 42 43 44 45 45 46 48 48 49 49 50 51 53 53 53 53 53 52 52 51 51 50 50 49 49 50 53 55
30 30 30 29 28 27 26 26 27 28 29 28 28 28 29 29 29 29 29 29 30 29 29 29 29 29 30 31 33 34 36 38 40 41 42 44 45 46 48 49 50 52 53 53 53 54 55 56 57 57 57 57 57 57 57 55 52 49 49 51 51 52 52
28 28 28 29 28 26 25 24 24 25 25 25 25 26 27 27 27 28 28 29 29 29 29 30 30 31 31 32 33 35 36 38 39 40 41 42 43 45 47 48 49 51 53 53 54 55 56 58 60 61 61 61 62 61 60 59 57 54 53 52 52 52 50
26 25 25 26 25 24 23 22 22 22 22 22 23 24 24 25 26 26 27 28 28 29 30 31 31 32 33 35 36 38 39 40 41 42 43 44 46 47 49 50 52 53 54 54 55 56 57 59 60 61 62 62 63 63 63 63 62 60 59 56 52 52 50
Wind_Direction
259 267 268 256 240 233 232 232 230 226 221 218 218 217 216 217 219 220 220 220 219 218 219 219 218 218 219 221 223 224 226 227 226 226 226 226 227 228 229 230 233 237 238 239 236 230 225 220 218 215 213 214 214 212 206 201 198 196 193 195 200 203 199
258 265 264 254 243 234 231 230 230 230 226 223 221 220 219 219 219 220 222 222 223 222 222 223 223 222 222 222 224 226 228 229 228 227 226 225 226 228 230 232 234 237 239 239 236 232 227 222 218 215 213 212 212 211 207 202 199 195 193 197 203 202 195
257 261 256 249 246 242 238 233 230 230 229 227 224 221 221 222 221 222 223 224 225 224 225 226 226 226 226 225 225 227 229 231 231 230 229 228 227 229 232 234 235 238 240 240 238 235 230 225 221 217 214 211 210 209 207 204 201 196 194 200 203 199 193
257 255 250 253 259 260 256 245 235 232 230 229 227 224 223 223 224 226 226 227 227 226 228 229 229 229 229 229 228 229 231 232 233 233 233 232 230 231 233 235 236 238 242 243 241 238 233 228 224 219 215 211 209 209 208 206 203 198 197 200 199 196 195
253 249 249 259 265 261 254 241 231 230 230 231 230 228 226 223 224 226 228 230 230 229 230 232 234 234 233 232 232 232 233 234 235 236 236 235 234 234 235 237 238 238 241 243 243 241 237 232 227 222 217 212 210 211 209 208 205 202 201 199 197 198 200
248 247 248 256 260 254 247 243 241 234 230 230 231 230 229 226 224 224 225 230 232 232 231 231 233 235 235 235 235 235 234 234 236 237 238 238 237 237 238 239 240 239 239 241 243 243 240 235 229 224 219 214 212 212 211 210 207 206 205 201 200 202 205
245 244 247 252 256 258 260 267 270 256 240 234 232 230 229 229 228 225 224 226 230 233 234 234 234 234 234 235 236 236 236 236 237 237 238 238 238 238 239 240 241 241 239 239 242 243 242 238 232 226 221 216 214 214 214 211 209 209 209 206 206 208 211
243 242 244 249 254 265 275 280 284 271 252 243 237 231 228 229 230 228 227 226 227 231 233 235 236 236 235 234 234 235 236 237 238 238 238 239 239 239 239 240 241 242 241 239 240 243 243 240 234 228 223 219 215 215 215 213 211 212 213 212 211 213 214
240 240 243 248 254 264 273 275 282 280 256 243 240 235 231 230 229 228 228 227 226 229 232 234 236 237 237 237 236 234 234 235 236 236 238 238 239 239 239 240 241 242 243 242 240 242 243 241 236 230 225 220 217 217 216 215 214 215 216 215 214 215 216
235 239 241 244 250 256 262 268 277 282 260 241 236 233 232 231 229 227 227 227 227 229 231 233 236 236 237 237 237 236 234 234 233 233 234 236 238 239 240 241 242 243 244 244 242 241 242 241 237 231 226 222 219 218 218 217 217 217 218 218 217 218 218
235 239 236 235 242 250 255 262 273 278 259 236 228 226 226 226 224 223 224 225 227 228 230 231 234 234 234 235 237 236 233 232 232 231 232 234 236 238 240 241 243 243 244 244 242 241 241 241 237 232 228 224 221 220 220 220 219 219 220 220 220 220 221
234 237 233 235 246 254 257 261 265 269 265 242 227 225 224 221 220 219 219 221 223 226 228 229 231 231 230 230 232 232 230 230 232 233 233 235 237 238 239 241 243 244 243 243 241 239 239 240 238 233 229 226 222 221 222 222 222 222 222 223 223 223 224
239 238 236 239 248 256 260 262 260 262 272 256 231 227 225 222 220 218 217 218 219 222 225 225 226 227 226 226 227 228 229 230 232 235 237 239 240 240 241 242 244 245 244 241 238 236 236 237 237 234 230 227 224 223 223 224 224 224 224 225 226 227 227
251 249 243 241 245 251 256 260 258 258 267 264 236 228 228 224 221 219 218 218 219 221 222 221 222 222 222 223 224 227 229 231 233 235 238 241 242 242 242 243 244 245 243 241 237 235 235 235 236 235 231 227 225 224 224 225 226 226 226 227 228 230 231
268 274 266 254 249 250 252 255 256 255 261 264 239 225 226 225 222 220 219 219 220 220 220 219 219 220 222 223 225 227 228 230 233 235 237 241 242 242 242 242 243 244 243 241 239 236 234 234 234 234 232 228 226 225 226 226 227 228 228 229 229 232 235
274 277 270 257 247 247 249 250 249 251 256 259 243 223 221 223 223 221 220 221 221 220 219 218 217 218 221 225 227 227 227 228 231 233 235 239 242 243 242 241 241 243 243 242 241 238 234 232 233 233 232 230 227 226 227 228 230 231 231 231 231 232 236
269 267 260 258 250 247 251 245 241 245 253 257 251 234 224 222 222 222 222 222 222 222 221 219 219 219 222 225 227 226 226 227 229 231 234 238 241 242 243 242 240 240 242 242 243 240 235 232 233 233 233 231 229 228 229 231 232 232 232 232 233 234 236
266 266 265 270 268 256 250 246 240 240 248 255 253 243 233 225 221 220 222 224 223 223 223 222 221 222 224 227 227 227 228 228 228 231 233 236 239 240 242 243 242 242 241 240 241 241 239 235 234 234 233 233 231 231 232 233 233 233 234 234 234 235 236
267 268 270 275 276 262 247 246 242 236 241 250 251 247 242 232 223 218 219 221 222 222 222 222 222 224 226 228 229 230 231 230 229 231 233 235 238 239 241 244 247 248 246 243 240 241 241 239 237 235 235 234 233 233 234 235 234 234 235 235 234 235 236
270 273 273 275 277 265 248 245 241 233 236 244 247 247 244 234 228 222 217 216 220 222 222 221 221 223 226 229 231 233 234 233 232 232 232 234 237 239 241 244 248 252 252 248 242 239 240 241 239 238 237 236 235 235 236 237 236 236 236 236 234 235 235
270 272 272 271 273 262 246 241 237 230 233 240 243 247 246 236 229 228 223 218 219 223 226 225 224 225 227 229 232 235 236 236 236 235 234 234 236 239 241 242 246 250 253 252 246 240 239 241 241 240 239 239 237 236 237 238 238 237 238 237 235 235 235
268 270 268 266 266 255 241 237 234 230 234 239 239 242 245 236 225 226 228 224 222 223 225 226 227 227 229 231 233 234 236 237 238 238 237 236 236 238 239 241 243 247 249 252 251 245 239 238 241 241 240 239 238 237 237 239 239 239 238 237 235 234 235
264 266 264 262 261 249 236 233 235 234 236 238 234 234 237 231 222 222 226 226 225 225 225 225 225 227 230 233 233 234 234 235 236 238 239 238 237 238 240 241 243 244 246 250 253 251 245 239 239 241 241 239 239 239 238 239 240 240 238 237 235 233 235
260 259 258 258 258 248 235 231 234 237 237 234 231 229 230 228 223 222 225 228 228 227 227 226 225 227 230 232 233 233 233 233 234 234 236 237 239 241 242 243 243 244 246 249 252 253 251 244 239 240 242 241 240 240 239 239 240 240 238 236 235 233 235
260 255 253 254 257 250 238 232 233 238 237 232 230 230 229 229 227 225 228 232 234 234 234 233 232 232 232 231 232 233 233 232 230 230 235 240 243 245 245 243 242 242 243 245 248 250 251 248 244 240 241 243 242 241 239 239 240 241 239 237 235 234 235
264 255 252 253 255 253 245 238 237 240 239 237 239 239 235 233 231 229 230 234 237 242 244 243 241 239 234 231 230 231 232 230 229 232 240 245 245 243 242 241 241 240 241 242 245 247 248 250 250 246 242 242 243 242 241 239 240 242 241 238 236 235 235
269 260 256 254 253 254 253 248 243 242 242 244 248 248 244 241 237 234 233 234 238 242 245 246 243 239 236 232 230 229 228 227 230 236 241 240 237 237 239 241 242 243 243 243 243 245 247 250 252 251 246 243 243 244 244 242 241 243 243 241 238 236 236
265 262 258 256 253 254 257 255 248 243 241 244 247 246 244 243 241 238 237 236 238 240 242 244 243 239 236 233 231 229 228 228 231 234 232 231 232 234 237 240 243 245 246 245 245 246 248 250 251 252 250 246 244 244 245 245 243 243 244 243 241 239 238
255 256 256 255 253 253 257 257 252 245 240 240 241 240 240 240 239 240 241 239 239 240 240 241 241 238 235 233 232 232 231 230 229 226 226 229 233 236 239 243 246 248 248 246 246 246 248 250 250 251 251 250 248 246 245 245 245 244 244 245 245 243 242
244 245 247 250 251 252 255 257 256 249 241 238 237 236 235 235 236 237 239 241 242 242 242 242 241 239 237 235 233 231 227 223 220 220 224 231 235 239 243 247 250 251 249 247 246 247 248 249 249 249 250 251 250 249 248 247 246 246 245 245 246 246 246
234 234 237 241 246 249 253 256 256 250 243 239 238 235 233 232 233 235 237 238 240 242 243 244 245 244 242 238 234 230 224 220 219 221 227 232 237 241 245 248 251 250 247 245 245 246 247 249 250 250 251 252 252 252 251 250 250 249 248 248 248 248 248
225 227 229 233 237 242 246 249 252 251 246 243 241 237 232 231 232 235 237 238 239 241 242 243 246 248 246 242 236 229 224 223 224 226 230 235 240 245 248 250 252 250 245 243 242 244 246 248 251 253 254 255 256 256 255 254 253 253 253 253 253 253 252
218 220 223 225 227 231 235 239 244 247 247 247 245 240 234 233 234 235 237 239 239 240 242 243 245 247 248 246 240 233 230 230 232 235 240 244 248 251 252 252 252 252 250 246 244 245 247 248 250 252 254 256 258 259 258 258 258 258 257 258 259 260 258
212 214 216 217 218 220 223 227 233 238 242 243 243 241 238 237 237 238 239 241 243 244 245 246 247 248 248 248 246 243 241 242 244 247 250 252 254 256 256 256 254 254 254 252 251 251 252 251 252 252 252 253 255 256 257 259 260 259 258 258 261 261 259
206 208 210 211 213 215 217 221 225 230 234 235 235 235 236 236 237 239 240 242 244 246 247 248 248 249 250 250 250 249 249 249 251 253 255 257 258 259 261 262 261 260 259 259 258 258 257 257 257 257 257 256 256 256 256 257 257 257 256 256 259 262 261
201 205 207 208 210 212 215 218 222 225 228 229 230 231 232 234 236 238 240 243 245 246 248 250 251 252 253 253 254 254 254 255 256 257 258 260 261 262 263 265 265 264 264 263 263 262 261 262 262 262 262 261 260 259 259 258 257 255 253 253 255 259 261
197 200 203 205 207 210 212 216 221 224 227 229 231 232 234 236 239 241 243 245 248 250 252 253 255 256 257 257 258 258 259 259 260 260 261 262 262 264 265 265 266 266 266 265 265 264 264 263 264 263 263 263 262 262 260 259 257 255 253 253 253 252 253
195 197 201 203 205 208 210 215 220 224 228 232 235 238 241 243 245 248 250 252 254 255 256 256 257 257 257 258 258 259 259 260 261 261 262 262 263 264 264 265 266 266 266 266 266 266 265 265 265 264 263 263 262 261 259 257 256 255 253 254 255 253 253
Height
3131 3133 3133 3135 3136 3138 3141 3143 3146 3148 3150 3151 3153 3155 3157 3158 3159 3160 3162 3164 3166 3169 3170 3172 3174 3177 3179 3182 3185 3187 3189 3191 3192 3194 3196 3197 3198 3199 3200 3201 3202 3203 3204 3204 3205 3206 3207 3208 3208 3209 3210 3211 3212 3213 3213 3213 3214 3215 3216 3218 3219 3219 3220
3129 3130 3131 3132 3134 3136 3137 3140 3143 3145 3147 3149 3150 3153 3154 3155 3157 3158 3160 3162 3164 3167 3168 3170 3172 3174 3177 3180 3183 3185 3186 3188 3190 3192 3193 3195 3196 3197 3198 3199 3200 3201 3202 3203 3203 3204 3205 3205 3206 3207 3208 3209 3210 3211 3211 3212 3212 3213 3215 3216 3217 3218 3219
3126 3126 3128 3130 3131 3133 3135 3137 3139 3141 3144 3146 3147 3149 3151 3152 3154 3155 3158 3160 3162 3165 3166 3167 3169 3172 3174 3177 3179 3182 3184 3185 3187 3189 3191 3192 3194 3195 3196 3197 3198 3199 3200 3201 3201 3202 3202 3203 3204 3205 3206 3206 3207 3209 3210 3210 3211 3212 3213 3214 3216 3217 3217
3122 3123 3125 3127 3128 3130 3131 3133 3136 3138 3140 3142 3144 3146 3148 3150 3152 3154 3156 3158 3160 3162 3163 3165 3167 3169 3171 3174 3176 3178 3180 3182 3184 3186 3188 3190 3191 3192 3193 3194 3195 3197 3197 3198 3199 3200 3200 3201 3202 3203 3204 3205 3205 3206 3208 3209 3210 3210 3211 3212 3214 3215 3216
3119 3121 3123 3123 3125 3127 3128 3130 3132 3134 3137 3138 3141 3143 3145 3148 3150 3151 3154 3155 3157 3159 3161 3163 3165 3167 3169 3171 3173 3175 3177 3180 3181 3183 3185 3187 3188 3189 3190 3192 3193 3194 3195 3196 3197 3198 3198 3199 3200 3201 3202 3203 3203 3204 3206 3207 3208 3209 3209 3210 3212 3213 3214
3117 3118 3120 3121 3122 3124 3125 3128 3129 3131 3133 3135 3137 3140 3143 3145 3146 3148 3151 3152 3155 3157 3158 3160 3162 3163 3166 3168 3170 3172 3175 3177 3178 3180 3182 3183 3185 3186 3188 3189 3190 3192 3193 3193 3194 3195 3196 3197 3197 3199 3199 3200 3201 3202 3204 3205 3207 3207 3208 3209 3210 3211 3212
3114 3116 3117 3118 3120 3121 3123 3125 3126 3127 3129 3131 3134 3136 3139 3141 3142 3145 3147 3149 3152 3154 3155 3157 3158 3161 3163 3165 3168 3169 3172 3174 3175 3177 3179 3180 3182 3183 3184 3186 3187 3189 3190 3191 3191 3192 3193 3194 3195 3196 3197 3198 3198 3200 3201 3203 3204 3206 3206 3207 3208 3209 3210
3111 3113 3115 3116 3117 3119 3120 3121 3123 3124 3125 3127 3129 3132 3135 3136 3139 3142 3144 3146 3149 3150 3152 3154 3155 3158 3160 3163 3165 3166 3169 3171 3172 3174 3175 3177 3178 3179 3181 3182 3184 3185 3186 3187 3188 3189 3190 3191 3192 3193 3194 3195 3195 3197 3199 3200 3202 3203 3204 3205 3205 3206 3207
3109 3111 3113 3113 3114 3116 3117 3118 3120 3121 3122 3123 3125 3128 3130 3132 3135 3138 3140 3143 3145 3146 3149 3151 3153 3155 3158 3160 3162 3164 3166 3167 3168 3170 3171 3173 3174 3175 3177 3179 3180 3182 3183 3184 3185 3186 3187 3188 3189 3190 3191 3192 3193 3194 3196 3197 3199 3201 3202 3203 3203 3204 3205
3106 3109 3110 3111 3112 3114 3114 3115 3117 3118 3119 3120 3122 3124 3126 3128 3130 3133 3136 3139 3141 3143 3146 3148 3150 3152 3155 3157 3159 3161 3162 3163 3165 3166 3167 3168 3169 3171 3173 3175 3177 3178 3179 3181 3182 3183 3184 3185 3186 3187 3187 3188 3189 3191 3192 3194 3196 3198 3199 3200 3201 3202 3203
3103 3105 3107 3109 3110 3111 3112 3113 3114 3115 3116 3117 3118 3120 3122 3124 3126 3129 3131 3134 3137 3140 3143 3145 3147 3149 3151 3153 3155 3157 3159 3160 3161 3162 3163 3164 3165 3167 3169 3171 3173 3174 3175 3177 3178 3180 3181 3181 3182 3183 3184 3185 3186 3188 3189 3191 3193 3195 3197 3198 3199 3200 3200
3101 3102 3104 3105 3107 3108 3109 3110 3112 3113 3113 3114 3115 3116 3118 3120 3122 3125 3127 3130 3133 3136 3138 3141 3143 3145 3147 3149 3151 3153 3155 3156 3158 3159 3160 3161 3162 3164 3166 3167 3169 3170 3171 3173 3174 3176 3176 3177 3178 3179 3181 3182 3184 3185 3187 3188 3190 3192 3194 3195 3196 3197 3198
3099 3100 3102 3103 3104 3105 3106 3107 3109 3110 3111 3112 3112 3113 3115 3117 3119 3121 3124 3126 3129 3131 3134 3137 3139 3141 3143 3145 3147 3149 3150 3152 3154 3156 3157 3158 3160 3162 3163 3164 3165 3166 3167 3169 3170 3171 3172 3173 3174 3176 3178 3179 3180 3182 3183 3185 3186 3188 3190 3192 3193 3195 3195
3098 3099 3100 3101 3102 3103 3104 3105 3106 3108 3109 3110 3110 3111 3113 3114 3116 3118 3121 3123 3125 3128 3130 3133 3135 3137 3139 3141 3143 3144 3146 3149 3150 3152 3154 3155 3157 3158 3160 3161 3161 3162 3164 3165 3165 3167 3168 3169 3171 3172 3174 3175 3176 3178 3179 3181 3182 3184 3186 3188 3190 3191 3192
3096 3097 3098 3098 3100 3101 3102 3103 3104 3105 3106 3107 3108 3108 3110 3112 3114 3116 3118 3120 3122 3125 3127 3130 3132 3134 3136 3137 3139 3140 3143 3145 3147 3149 3151 3152 3153 3154 3156 3157 3158 3159 3160 3161 3162 3163 3164 3166 3167 3168 3169 3171 3172 3174 3175 3177 3178 3180 3182 3184 3186 3188 3188
3093 3095 3095 3096 3097 3098 3100 3101 3102 3102 3103 3104 3105 3106 3108 3110 3111 3113 3115 3117 3119 3121 3124 3126 3128 3130 3132 3133 3134 3137 3140 3142 3144 3146 3147 3148 3149 3150 3152 3154 3155 3156 3157 3158 3159 3159 3160 3162 3163 3164 3165 3167 3168 3170 3171 3172 3174 3176 3179 3180 3182 3184 3185
3091 3092 3093 3094 3095 3095 3097 3098 3099 3100 3101 3102 3103 3104 3105 3107 3109 3111 3113 3114 3116 3118 3121 3123 3125 3126 3128 3129 3131 3134 3136 3138 3140 3142 3143 3144 3145 3147 3148 3149 3151 3153 3154 3155 3155 3156 3157 3158 3158 3159 3161 3162 3164 3166 3166 3168 3170 3173 3175 3176 3178 3180 3181
3087 3088 3089 3091 3091 3092 3093 3094 3095 3097 3098 3099 3100 3101 3102 3104 3105 3107 3109 3111 3113 3115 3117 3119 3121 3123 3125 3126 3128 3130 3132 3134 3136 3138 3139 3140 3141 3142 3144 3145 3147 3149 3150 3151 3152 3153 3153 3154 3154 3156 3157 3158 3160 3161 3162 3164 3167 3169 3171 3172 3174 3176 3177
3083 3084 3086 3087 3088 3089 3090 3091 3092 3093 3094 3095 3097 3098 3099 3100 3101 3103 3106 3108 3110 3111 3113 3116 3118 3120 3122 3123 3125 3126 3128 3130 3132 3134 3135 3136 3138 3139 3140 3141 3143 3144 3146 3147 3148 3149 3150 3150 3150 3152 3153 3154 3156 3157 3158 3160 3163 3165 3166 3168 3170 3171 3172
3079 3081 3082 3083 3084 3085 3086 3087 3088 3089 3091 3092 3093 3095 3096 3097 3098 3100 3102 3104 3105 3107 3110 3112 3115 3117 3119 3120 3122 3123 3125 3127 3129 3130 3132 3133 3134 3135 3136 3137 3138 3140 3141 3142 3144 3145 3145 3146 3147 3148 3149 3150 3151 3153 3155 3156 3158 3160 3162 3164 3166 3167 3167
3075 3077 3078 3079 3080 3081 3082 3084 3085 3086 3087 3089 3090 3091 3092 3093 3095 3097 3098 3100 3102 3104 3107 3109 3111 3113 3115 3117 3118 3120 3122 3123 3125 3127 3128 3130 3130 3131 3132 3133 3134 3135 3136 3137 3139 3140 3141 3142 3143 3144 3145 3146 3147 3149 3150 3151 3153 3156 3157 3159 3161 3162 3162
3072 3073 3074 3075 3076 3077 3078 3080 3081 3083 3084 3085 3086 3088 3089 3091 3092 3093 3095 3097 3099 3101 3104 3105 3107 3109 3111 3113 3115 3117 3118 3120 3121 3123 3124 3126 3127 3127 3128 3129 3130 3131 3132 3132 3134 3135 3137 3138 3139 3140 3141 3142 3143 3144 3145 3146 3148 3151 3153 3154 3156 3157 3157
3068 3069 3071 3072 3073 3074 3075 3076 3078 3080 3081 3082 3084 3085 3086 3087 3088 3089 3091 3093 3095 3098 3100 3101 3103 3106 3108 3110 3111 3113 3114 3116 3117 3119 3120 3122 3123 3124 3125 3126 3127 3128 3128 3129 3129 3130 3132 3134 3135 3136 3136 3137 3138 3139 3140 3142 3143 3146 3148 3150 3151 3152 3152
3065 3066 3067 3069 3070 3071 3072 3073 3075 3076 3078 3079 3081 3081 3082 3084 3085 3086 3088 3090 3092 3094 3096 3097 3100 3102 3104 3106 3107 3108 3109 3111 3113 3114 3116 3117 3119 3120 3121 3122 3123 3124 3125 3125 3125 3126 3127 3129 3131 3131 3132 3133 3134 3135 3136 3137 3139 3141 3143 3144 3145 3146 3147
3062 3063 3064 3066 3067 3068 3069 3071 3072 3073 3075 3076 3077 3078 3079 3080 3081 3083 3085 3087 3089 3090 3092 3094 3097 3099 3100 3101 3102 3103 3105 3106 3108 3110 3111 3113 3114 3116 3117 3118 3119 3120 3121 3121 3121 3122 3123 3124 3125 3126 3127 3128 3129 3130 3131 3133 3134 3136 3137 3139 3140 3141 3141
3058 3059 3061 3063 3064 3065 3066 3067 3069 3070 3072 3073 3075 3076 3076 3077 3079 3080 3082 3083 3085 3087 3089 3091 3093 3094 3095 3095 3096 3098 3100 3102 3104 3106 3108 3109 3110 3111 3112 3113 3114 3115 3116 3116 3117 3117 3118 3118 3119 3121 3123 3124 3124 3125 3126 3127 3128 3130 3131 3133 3134 3135 3136
3053 3055 3057 3059 3061 3062 3063 3065 3066 3067 3069 3070 3072 3073 3074 3075 3076 3077 3078 3080 3082 3084 3085 3086 3087 3088 3089 3090 3091 3093 3095 3097 3100 3102 3104 3105 3106 3107 3107 3108 3109 3110 3111 3112 3112 3112 3113 3113 3114 3115 3117 3118 3119 3119 3120 3122 3123 3124 3126 3127 3129 3130 3130
3050 3051 3053 3056 3058 3059 3061 3062 3063 3065 3066 3067 3069 3070 3072 3073 3074 3074 3075 3077 3078 3079 3081 3081 3082 3084 3085 3087 3088 3089 3091 3094 3095 3097 3099 3100 3101 3102 3102 3103 3104 3105 3106 3107 3108 3108 3108 3108 3109 3110 3111 3112 3113 3113 3114 3116 3117 3119 3120 3121 3122 3123 3124
3047 3048 3049 3052 3054 3056 3058 3060 3061 3062 3063 3065 3066 3067 3069 3070 3071 3072 3073 3074 3075 3076 3078 3079 3080 3081 3082 3083 3085 3086 3088 3090 3091 3093 3094 3095 3096 3097 3098 3099 3100 3101 3101 3102 3103 3103 3103 3103 3104 3105 3105 3106 3106 3107 3109 3110 3111 3112 3114 3115 3116 3117 3117
3044 3045 3047 3048 3050 3053 3055 3057 3058 3059 3061 3062 3063 3064 3066 3067 3068 3069 3071 3072 3073 3074 3075 3076 3077 3078 3078 3080 3081 3082 3084 3085 3086 3088 3089 3090 3091 3092 3093 3094 3095 3096 3096 3097 3098 3098 3098 3099 3099 3099 3100 3100 3100 3101 3102 3103 3104 3106 3107 3108 3109 3110 3111
3041 3043 3044 3046 3047 3049 3051 3053 3055 3057 3058 3059 3060 3061 3063 3064 3065 3066 3068 3069 3070 3072 3073 3074 3075 3075 3076 3077 3077 3078 3079 3080 3082 3083 3084 3085 3086 3087 3089 3090 3090 3091 3091 3092 3093 3093 3093 3094 3095 3095 3095 3095 3095 3096 3096 3097 3098 3099 3100 3101 3102 3103 3105
3039 3040 3042 3043 3045 3046 3048 3050 3052 3053 3055 3056 3057 3058 3060 3061 3062 3063 3065 3066 3067 3068 3069 3070 3072 3072 3073 3074 3074 3075 3076 3077 3078 3079 3080 3081 3082 3083 3085 3085 3086 3086 3086 3087 3087 3088 3089 3089 3090 3091 3091 3091 3091 3091 3091 3091 3092 3093 3094 3095 3096 3098 3099
3036 3038 3039 3041 3042 3044 3045 3047 3048 3050 3052 3053 3055 3056 3057 3058 3059 3060 3062 3063 3064 3065 3066 3067 3068 3069 3070 3071 3071 3072 3073 3074 3075 3076 3077 3078 3079 3079 3080 3080 3081 3081 3081 3082 3082 3083 3083 3084 3085 3085 3086 3086 3086 3086 3086 3086 3087 3088 3089 3089 3090 3091 3092
3034 3035 3036 3038 3039 3041 3042 3044 3045 3047 3049 3050 3051 3053 3054 3055 3056 3057 3058 3059 3060 3061 3062 3063 3064 3065 3066 3067 3068 3069 3070 3071 3072 3072 3073 3073 3074 3074 3075 3075 3075 3075 3075 3076 3077 3077 3077 3077 3078 3078 3079 3080 3080 3079 3080 3080 3081 3082 3083 3083 3084 3084 3084
3031 3032 3033 3035 3036 3038 3039 3041 3042 3044 3045 3046 3047 3049 3050 3051 3052 3053 3054 3055 3056 3057 3058 3059 3060 3061 3062 3063 3064 3065 3065 3066 3067 3068 3068 3068 3069 3069 3069 3069 3069 3069 3069 3070 3071 3071 3071 3070 3070 3071 3072 3071 3070 3070 3071 3072 3073 3075 3076 3077 3077 3078 3078
3028 3029 3030 3031 3033 3034 3036 3037 3039 3040 3041 3042 3044 3045 3046 3047 3049 3050 3051 3052 3053 3054 3054 3055 3056 3057 3058 3059 3060 3060 3061 3062 3062 3063 3063 3063 3063 3063 3063 3063 3063 3063 3063 3063 3064 3064 3064 3063 3063 3063 3063 3062 3061 3062 3063 3064 3066 3068 3068 3068 3069 3070 3070
3026 3027 3027 3028 3029 3031 3032 3034 3035 3037 3038 3039 3040 3042 3043 3044 3045 3046 3047 3048 3049 3050 3051 3051 3052 3053 3054 3054 3055 3056 3056 3057 3057 3057 3058 3058 3058 3058 3057 3057 3056 3056 3055 3055 3056 3056 3056 3055 3054 3054 3053 3052 3052 3053 3054 3055 3056 3057 3057 3059 3059 3059 3060
3022 3024 3025 3025 3026 3027 3029 3031 3033 3034 3035 3036 3037 3038 3040 3041 3042 3043 3044 3045 3046 3046 3047 3048 3048 3049 3049 3050 3050 3050 3051 3051 3051 3051 3051 3052 3052 3051 3050 3050 3049 3048 3048 3048 3048 3048 3048 3046 3045 3044 3044 3043 3043 3043 3043 3043 3045 3047 3049 3050 3049 3048 3050